Powrót do katalogu

AETHER-7

AktywnyŁącznośćSSO
NORAD 67378·PAYLOAD·🇨🇦 Canada

Wystrzelony Jan 11, 2026 z Vandenberg Space Force Base

Loading…

Następne Przeloty (najbliższe 24 godziny)

TLE

ŚwieżeSource: Space-Track

Epoka: Sep 14, 2026, 05:22 UTC

1 67378U 26004R   26257.22405826  .00001216  00000-0  14365-3 0  9996
2 67378  97.8076 254.0713 0002895 167.0033 193.1258 14.86476350 36503

Śledź AETHER-7 w czasie rzeczywistym z AllMySat

Download on the App Store